This is the latest recevied weather packets stored in our database for station/object KF0ZH. If no packets are shown the sender has not sent any weather packets the latest 10 day(s).
| Time | Temp. | Humidity | Pressure | Rain* | Wind** | Luminosity | Snow |
|---|---|---|---|---|---|---|---|
| 1777227303 | 12.22° C | 84% | 1014.2 hPa | 0 mm | 3.13 m/s, 14° | - | - |
| 1777226711 | 11.67° C | 87% | 1014.4 hPa | 0 mm | 1.79 m/s, 350° | - | - |
| 1777226404 | 11.67° C | 85% | 1014.5 hPa | 0 mm | 3.58 m/s, 60° | - | - |
| 1777226103 | 11.67° C | 85% | 1014.6 hPa | 0 mm | 2.68 m/s, 36° | - | - |
| 1777225803 | 11.67° C | 86% | 1014.6 hPa | 0 mm | 1.34 m/s, 23° | - | - |
| 1777225503 | 11.67° C | 87% | 1014.7 hPa | 0 mm | 2.68 m/s, 97° | - | - |
| 1777225203 | 11.67° C | 86% | 1014.8 hPa | 0 mm | 2.24 m/s, 7° | - | - |
| 1777224603 | 11.67° C | 86% | 1015 hPa | 0 mm | 0 m/s | - | - |
| 1777224303 | 11.11° C | 87% | 1015 hPa | 0 mm | 2.24 m/s, 30° | - | - |
| 1777224003 | 11.11° C | 87% | 1015.1 hPa | 0 mm | 1.34 m/s, 78° | - | - |
| 1777223703 | 11.11° C | 87% | 1015.2 hPa | 0 mm | 1.79 m/s, 358° | - | - |
| 1777223403 | 11.11° C | 87% | 1015.2 hPa | 0 mm | 0.45 m/s, 358° | - | - |
| 1777223103 | 11.11° C | 88% | 1015.2 hPa | 0 mm | 2.24 m/s, 30° | - | - |
| 1777222806 | 11.11° C | 87% | 1015.4 hPa | 0 mm | 2.24 m/s, 50° | - | - |
| 1777222503 | 11.11° C | 87% | 1015.4 hPa | 0 mm | 2.24 m/s, 330° | - | - |
| 1777222204 | 11.11° C | 88% | 1015.3 hPa | 0 mm | 0 m/s | - | - |
| 1777221903 | 10.56° C | 89% | 1015.4 hPa | 0 mm | 3.13 m/s, 30° | - | - |
| 1777221603 | 10.56° C | 88% | 1015.6 hPa | 0 mm | 1.34 m/s, 106° | - | - |
| 1777221303 | 10.56° C | 89% | 1015.7 hPa | 0 mm | 3.13 m/s, 35° | - | - |
| 1777221003 | 10.56° C | 88% | 1015.6 hPa | 0 mm | 0 m/s | - | - |
| 1777220703 | 10.56° C | 88% | 1015.6 hPa | 0 mm | 3.58 m/s, 39° | - | - |
| 1777220403 | 10.56° C | 89% | 1015.7 hPa | 0 mm | 1.34 m/s, 101° | - | - |
| 1777220105 | 10° C | 90% | 1015.8 hPa | 0 mm | 0.89 m/s, 49° | - | - |
| 1777219862 | 10° C | 90% | 1015.9 hPa | 0 mm | 4.02 m/s, 52° | - | - |
| 1777219803 | 10° C | 90% | 1015.9 hPa | 0 mm | 4.02 m/s, 52° | - | - |
* Rain latest hour (hover to see other rain measurements)
** Current wind speed in m/s (hover to see current wind gust speed)